Weather in Beloyarka

Russia / Novosibirsk Oblast     55°24′54″N   83°11′52″E
temp.,
°C
wind,
m/s
gust,
m/s
humid.,
%
clouds,
%
prec.,
mm/h
press.,
hPa
HPBL,
m
19 september, sun
sun1901:00+8sw3968100 0.0 1009685
04:00+8ssw3866100 0.0 1009434
07:00+7s41068100 0.0 1008527
10:00+9ssw51164100 0.0 1007675
13:00+12s6125187 0.0 10051474
16:00+14sw61451100 0.0 10021907
19:00+10wsw611645 0.1 10031169
22:00+7w388295 0.1 1004647
20 september, mon
mon2001:00+4wsw399495 0.3 1005395
04:00+4sw4109188 0.0 1006376
07:00+3sw4119088 0.1 1008476
10:00+5sw6117199 0.0 10081271
13:00+4sw61189100 0.5 10091060
16:00+4wsw61190100 0.7 1010913
19:00+4wsw4990100 0.8 1010802
22:00+3wsw4894100 0.1 1010693
21 september, tue
tue2101:00+3w478392 0.3 1011858
04:00+2wsw379283 0.1 1011551
07:00+2sw4997100 0.3 1012616
10:00+2sw4997100 0.6 1012528
13:00+3wsw2698100 0.9 1013530
16:00+3w4897100 0.3 1015628
19:00+4w4897100 0.4 1017679
22:00+3w3894100 0.1 1018512
22 september, wed
wed2201:00+2wsw3893100 0.3 1018417
04:00+2wsw3796100 0.1 1018506
07:00+1wsw3696100 0.1 1019416
10:00+3wsw3690100 0.1 1019631
13:00+4wsw4684100 0.6 1019877
16:00+4wsw4681100 0.5 10191001
19:00+3wsw3686100 0.9 1019469
22:00+2wsw2698100 0.1 1020418
23 september, thu
thu2301:00+2sw3698100 0.2 1019367
04:00+2ssw2698100 0.1 1019297
07:00+2ssw2698100 0.5 1019296
10:00+2ssw2399100 0.8 1019252
13:00+2sw1196100 0.9 1020406
16:00+3nne1197100 0.3 1021312
19:00+2nnw2497100 0.6 1023326
22:00+2nnw2498100 0.1 1024272